N33M KBHM-KDAY

Flight info

Callsign N33M
Flight time 1h 4m
Altitude 35000
Route VLKNN Q139 CREEP CILRO DANEI3
Aircraft C750/M-VGDW/C

Departure

Time 2026-04-27 18:59
Airport Birmingham-Shuttlesworth International Airport (KBHM)

Arrival

Time 2026-04-27 20:03
Airport James M. Cox Dayton International Airport (KDAY)
Time Latitude Longitude Altitude Speed Heading
2026-04-27 18:37 33.56593 -86.74276 635 ft 0 kts 147°
2026-04-27 18:53 33.56588 -86.74273 635 ft 4 kts 162°
2026-04-27 18:53 33.56565 -86.74303 633 ft 7 kts 275°
2026-04-27 18:53 33.56586 -86.74367 632 ft 8 kts 308°
2026-04-27 18:53 33.56628 -86.74423 631 ft 9 kts 310°
2026-04-27 18:54 33.56641 -86.74499 630 ft 10 kts 269°
2026-04-27 18:54 33.56647 -86.74579 630 ft 9 kts 310°
2026-04-27 18:54 33.56702 -86.74599 631 ft 7 kts 356°
2026-04-27 18:54 33.56753 -86.74586 632 ft 8 kts 33°
2026-04-27 18:55 33.56809 -86.74508 633 ft 16 kts 56°
2026-04-27 18:55 33.56877 -86.74394 637 ft 15 kts 37°
2026-04-27 18:55 33.56968 -86.74412 639 ft 14 kts 326°
2026-04-27 18:55 33.57064 -86.74487 642 ft 18 kts 326°
2026-04-27 18:56 33.57164 -86.74566 646 ft 15 kts 328°
2026-04-27 18:56 33.57238 -86.74621 652 ft 6 kts 327°
2026-04-27 18:56 33.57239 -86.74622 652 ft 0 kts 327°
2026-04-27 18:57 33.57254 -86.74633 653 ft 11 kts 328°
2026-04-27 18:57 33.57312 -86.74691 657 ft 8 kts 289°
2026-04-27 18:58 33.57275 -86.74728 655 ft 10 kts 174°
2026-04-27 18:58 33.57216 -86.74726 650 ft 14 kts 180°
2026-04-27 18:58 33.56726 -86.74718 632 ft 113 kts 179°
2026-04-27 18:58 33.55685 -86.74760 713 ft 179 kts 179°
2026-04-27 18:59 33.54286 -86.74833 1207 ft 220 kts 179°
2026-04-27 18:59 33.52629 -86.74897 1739 ft 247 kts 179°
2026-04-27 18:59 33.50928 -86.74957 2193 ft 246 kts 179°
2026-04-27 18:59 33.49205 -86.75012 2643 ft 244 kts 179°
2026-04-27 19:00 33.47515 -86.75155 3069 ft 245 kts 193°
2026-04-27 19:00 33.46140 -86.76311 3532 ft 250 kts 232°
2026-04-27 19:00 33.45601 -86.78284 3928 ft 259 kts 260°
2026-04-27 19:00 33.45432 -86.80562 4458 ft 283 kts 262°
2026-04-27 19:01 33.45261 -86.82849 5838 ft 280 kts 262°
2026-04-27 19:01 33.45083 -86.85067 7270 ft 272 kts 263°
2026-04-27 19:01 33.44865 -86.87312 8410 ft 275 kts 262°
2026-04-27 19:01 33.44820 -86.89566 9407 ft 281 kts 282°
2026-04-27 19:02 33.45768 -86.91572 10364 ft 290 kts 315°
2026-04-27 19:02 33.47557 -86.92664 11392 ft 299 kts 347°
2026-04-27 19:02 33.49646 -86.92577 12432 ft 305 kts
2026-04-27 19:02 33.51749 -86.92275 13403 ft 307 kts
2026-04-27 19:03 33.53888 -86.91952 14290 ft 312 kts
2026-04-27 19:03 33.56033 -86.91628 15186 ft 316 kts
2026-04-27 19:03 33.58209 -86.91300 16051 ft 319 kts
2026-04-27 19:03 33.59680 -86.91076 16586 ft 322 kts
2026-04-27 19:04 33.62666 -86.90627 17697 ft 326 kts
2026-04-27 19:04 33.64930 -86.90282 18426 ft 332 kts
2026-04-27 19:04 33.67215 -86.89924 19184 ft 336 kts
2026-04-27 19:04 33.69506 -86.89320 19876 ft 338 kts 359°
2026-04-27 19:05 33.71845 -86.89513 20579 ft 336 kts 353°
2026-04-27 19:05 33.74200 -86.89346 21247 ft 344 kts 360°
2026-04-27 19:05 33.76588 -86.89161 21890 ft 348 kts 359°
2026-04-27 19:05 33.79031 -86.88952 22559 ft 351 kts 359°
2026-04-27 19:06 33.81468 -86.88745 23181 ft 355 kts 359°
2026-04-27 19:06 33.83936 -86.88536 23827 ft 358 kts 359°
2026-04-27 19:06 33.86423 -86.88326 24499 ft 360 kts 359°
2026-04-27 19:06 33.88920 -86.88114 25119 ft 362 kts 359°
2026-04-27 19:07 33.91460 -86.87898 25698 ft 365 kts 359°
2026-04-27 19:07 33.93987 -86.87685 26291 ft 367 kts 359°
2026-04-27 19:07 33.96538 -86.87466 26846 ft 369 kts 359°
2026-04-27 19:07 33.99113 -86.87248 27411 ft 371 kts 359°
2026-04-27 19:08 34.01712 -86.87029 27936 ft 374 kts
2026-04-27 19:08 34.04297 -86.86807 28424 ft 376 kts
2026-04-27 19:08 34.06937 -86.86581 28935 ft 379 kts 360°
2026-04-27 19:08 34.09583 -86.86354 29413 ft 381 kts 360°
2026-04-27 19:09 34.12243 -86.86128 29909 ft 383 kts 360°
2026-04-27 19:09 34.14934 -86.85902 30343 ft 387 kts 360°
2026-04-27 19:09 34.17617 -86.85669 30759 ft 390 kts 360°
2026-04-27 19:09 34.20311 -86.85438 31263 ft 391 kts 360°
2026-04-27 19:10 34.23065 -86.85205 31630 ft 395 kts 360°
2026-04-27 19:10 34.25806 -86.84969 32027 ft 398 kts 360°
2026-04-27 19:10 34.28571 -86.84733 32409 ft 401 kts 360°
2026-04-27 19:10 34.30437 -86.84571 32688 ft 403 kts 360°
2026-04-27 19:11 34.34182 -86.84252 33202 ft 406 kts 360°
2026-04-27 19:11 34.37005 -86.84010 33592 ft 408 kts
2026-04-27 19:11 34.39858 -86.83762 33978 ft 410 kts 360°
2026-04-27 19:11 34.42726 -86.83517 34307 ft 414 kts 360°
2026-04-27 19:12 34.45612 -86.83267 34660 ft 416 kts 359°
2026-04-27 19:12 34.48495 -86.83019 35038 ft 418 kts 359°
2026-04-27 19:12 34.51478 -86.82765 35055 ft 428 kts 359°
2026-04-27 19:13 34.57579 -86.82243 35077 ft 447 kts 360°
2026-04-27 19:13 34.63931 -86.81692 35073 ft 465 kts 360°
2026-04-27 19:14 34.70496 -86.81124 35073 ft 480 kts
2026-04-27 19:14 34.77268 -86.80535 35070 ft 490 kts
2026-04-27 19:15 34.84170 -86.79939 35070 ft 499 kts
2026-04-27 19:15 34.91148 -86.79331 35066 ft 506 kts
2026-04-27 19:16 34.98226 -86.78713 35058 ft 508 kts
2026-04-27 19:16 35.05286 -86.78095 35049 ft 510 kts
2026-04-27 19:17 35.12387 -86.77477 35053 ft 510 kts
2026-04-27 19:17 35.19519 -86.76848 35050 ft 511 kts
2026-04-27 19:18 35.26604 -86.76224 35043 ft 511 kts
2026-04-27 19:18 35.33672 -86.75603 35041 ft 511 kts
2026-04-27 19:19 35.40813 -86.74972 35034 ft 511 kts
2026-04-27 19:19 35.47908 -86.74346 35043 ft 511 kts
2026-04-27 19:20 35.55029 -86.73718 35042 ft 511 kts
2026-04-27 19:20 35.62118 -86.73089 35034 ft 512 kts
2026-04-27 19:21 35.69256 -86.72454 35025 ft 512 kts
2026-04-27 19:21 35.76382 -86.71818 35023 ft 513 kts
2026-04-27 19:22 35.83519 -86.71184 35025 ft 513 kts
2026-04-27 19:22 35.90694 -86.70541 35030 ft 514 kts
2026-04-27 19:23 35.97815 -86.69906 35027 ft 514 kts
2026-04-27 19:23 36.04962 -86.69264 35022 ft 514 kts
2026-04-27 19:24 36.12151 -86.68598 35017 ft 515 kts
2026-04-27 19:24 36.15620 -86.67464 35016 ft 523 kts 20°
2026-04-27 19:24 36.18920 -86.65610 35003 ft 525 kts 20°
2026-04-27 19:25 36.25634 -86.61933 35027 ft 526 kts 20°
2026-04-27 19:25 36.32328 -86.58250 35024 ft 526 kts 20°
2026-04-27 19:26 36.38998 -86.54580 35018 ft 527 kts 20°
2026-04-27 19:26 36.45708 -86.50874 35030 ft 527 kts 20°
2026-04-27 19:27 36.52433 -86.47156 35023 ft 527 kts 20°
2026-04-27 19:27 36.59132 -86.43449 35008 ft 528 kts 20°
2026-04-27 19:28 36.65864 -86.39714 34990 ft 528 kts 20°
2026-04-27 19:28 36.72574 -86.35985 34996 ft 528 kts 20°
2026-04-27 19:29 36.79297 -86.32239 34988 ft 528 kts 21°
2026-04-27 19:29 36.86002 -86.28496 34986 ft 529 kts 21°
2026-04-27 19:30 36.92717 -86.24744 34988 ft 529 kts 21°
2026-04-27 19:30 36.99418 -86.20985 34979 ft 529 kts 21°
2026-04-27 19:31 37.06174 -86.17192 34987 ft 529 kts 21°
2026-04-27 19:31 37.12887 -86.13416 34989 ft 529 kts 20°
2026-04-27 19:32 37.19643 -86.09607 34991 ft 531 kts 20°
2026-04-27 19:32 37.26378 -86.05807 34987 ft 531 kts 20°
2026-04-27 19:33 37.33096 -86.02005 34990 ft 531 kts 20°
2026-04-27 19:33 37.39810 -85.98198 34989 ft 532 kts 20°
2026-04-27 19:34 37.46602 -85.94340 34994 ft 531 kts 20°
2026-04-27 19:34 37.53361 -85.90494 34993 ft 531 kts 20°
2026-04-27 19:35 37.60066 -85.86671 34998 ft 531 kts 20°
2026-04-27 19:35 37.66835 -85.82803 35004 ft 532 kts 20°
2026-04-27 19:36 37.73554 -85.78954 35001 ft 532 kts 20°
2026-04-27 19:36 37.80298 -85.75083 34996 ft 533 kts 20°
2026-04-27 19:37 37.87040 -85.71209 34994 ft 534 kts 20°
2026-04-27 19:37 37.93814 -85.67302 34998 ft 533 kts 20°
2026-04-27 19:38 38.00561 -85.63412 34995 ft 533 kts 20°
2026-04-27 19:38 38.07333 -85.59493 34999 ft 533 kts 19°
2026-04-27 19:39 38.13982 -85.55296 35019 ft 536 kts 24°
2026-04-27 19:39 38.20572 -85.50809 35002 ft 536 kts 23°
2026-04-27 19:40 38.27125 -85.46345 35004 ft 538 kts 23°
2026-04-27 19:40 38.33739 -85.41836 35009 ft 537 kts 23°
2026-04-27 19:41 38.40332 -85.37326 35008 ft 538 kts 23°
2026-04-27 19:41 38.46923 -85.32818 34997 ft 539 kts 24°
2026-04-27 19:42 38.53527 -85.28281 34997 ft 539 kts 23°
2026-04-27 19:42 38.60149 -85.23732 35000 ft 539 kts 24°
2026-04-27 19:43 38.66723 -85.19196 35004 ft 539 kts 23°
2026-04-27 19:43 38.73335 -85.14625 35008 ft 540 kts 24°
2026-04-27 19:44 38.79979 -85.10027 35010 ft 541 kts 24°
2026-04-27 19:44 38.86583 -85.05440 35010 ft 541 kts 23°
2026-04-27 19:45 38.93221 -85.00822 35005 ft 541 kts 23°
2026-04-27 19:45 38.99855 -84.96207 35000 ft 541 kts 23°
2026-04-27 19:46 39.06494 -84.91570 35008 ft 542 kts 23°
2026-04-27 19:46 39.13132 -84.86924 35015 ft 542 kts 23°
2026-04-27 19:47 39.19759 -84.82278 35011 ft 544 kts 24°
2026-04-27 19:47 39.26413 -84.77599 35002 ft 545 kts 24°
2026-04-27 19:48 39.33048 -84.72923 35008 ft 544 kts 24°
2026-04-27 19:48 39.39610 -84.68285 34956 ft 527 kts 23°
2026-04-27 19:48 39.42776 -84.66046 34743 ft 514 kts 23°
2026-04-27 19:49 39.45885 -84.63850 34431 ft 504 kts 23°
2026-04-27 19:49 39.48941 -84.61684 34128 ft 494 kts 23°
2026-04-27 19:49 39.51946 -84.59553 33749 ft 488 kts 23°
2026-04-27 19:49 39.54907 -84.57450 33225 ft 484 kts 23°
2026-04-27 19:50 39.57847 -84.55363 32688 ft 477 kts 23°
2026-04-27 19:50 39.60730 -84.53310 32162 ft 470 kts 23°
2026-04-27 19:50 39.63593 -84.51272 31624 ft 464 kts 23°
2026-04-27 19:50 39.66416 -84.49262 31032 ft 460 kts 23°
2026-04-27 19:51 39.69192 -84.47279 30432 ft 456 kts 23°
2026-04-27 19:51 39.71960 -84.45301 29823 ft 453 kts 23°
2026-04-27 19:51 39.74721 -84.43332 29230 ft 449 kts 23°
2026-04-27 19:51 39.77444 -84.41383 28205 ft 446 kts 23°
2026-04-27 19:52 39.80131 -84.39459 27145 ft 434 kts 24°
2026-04-27 19:52 39.81855 -84.38226 26463 ft 426 kts 23°
2026-04-27 19:52 39.85254 -84.35767 25082 ft 414 kts 25°
2026-04-27 19:52 39.87806 -84.34217 24041 ft 400 kts 16°
2026-04-27 19:53 39.92839 -84.31455 21970 ft 386 kts 17°
2026-04-27 19:53 39.95339 -84.30553 20955 ft 371 kts
2026-04-27 19:53 39.97873 -84.30316 19981 ft 363 kts 358°
2026-04-27 19:54 40.00360 -84.30085 18986 ft 358 kts 358°
2026-04-27 19:54 40.02818 -84.29872 17991 ft 353 kts 358°
2026-04-27 19:54 40.05241 -84.29666 16953 ft 345 kts 358°
2026-04-27 19:54 40.07598 -84.29492 15984 ft 337 kts 357°
2026-04-27 19:55 40.09900 -84.29417 15012 ft 330 kts 356°
2026-04-27 19:55 40.12151 -84.29364 14042 ft 325 kts 356°
2026-04-27 19:55 40.14407 -84.29323 13045 ft 321 kts 356°
2026-04-27 19:55 40.16604 -84.29256 12060 ft 321 kts
2026-04-27 19:56 40.18643 -84.28180 11110 ft 323 kts 38°
2026-04-27 19:56 40.20018 -84.25957 10172 ft 316 kts 70°
2026-04-27 19:56 40.20373 -84.23242 9245 ft 299 kts 103°
2026-04-27 19:56 40.19706 -84.20832 8327 ft 280 kts 130°
2026-04-27 19:57 40.18349 -84.19113 7362 ft 265 kts 154°
2026-04-27 19:57 40.16669 -84.18541 6402 ft 252 kts 187°
2026-04-27 19:57 40.15097 -84.19383 5576 ft 243 kts 220°
2026-04-27 19:57 40.13955 -84.20884 5373 ft 225 kts 221°
2026-04-27 19:58 40.12646 -84.21752 5046 ft 209 kts 186°
2026-04-27 19:58 40.11228 -84.21758 4763 ft 204 kts 182°
2026-04-27 19:58 40.09839 -84.21777 4467 ft 192 kts 181°
2026-04-27 19:58 40.08557 -84.21754 4251 ft 176 kts 180°
2026-04-27 19:59 40.07367 -84.21723 3989 ft 169 kts 180°
2026-04-27 19:59 40.06196 -84.21693 3754 ft 165 kts 181°
2026-04-27 19:59 40.05054 -84.21655 3528 ft 163 kts 180°
2026-04-27 19:59 40.03953 -84.21616 3367 ft 154 kts 180°
2026-04-27 20:00 40.02885 -84.21582 3144 ft 152 kts 180°
2026-04-27 20:00 40.01826 -84.21547 2922 ft 152 kts 180°
2026-04-27 20:00 40.00780 -84.21514 2705 ft 143 kts 179°
2026-04-27 20:00 39.99860 -84.21481 2493 ft 125 kts 179°
2026-04-27 20:01 39.99024 -84.21449 2316 ft 115 kts 180°
2026-04-27 20:01 39.98212 -84.21423 2202 ft 122 kts 180°
2026-04-27 20:01 39.97316 -84.21394 2080 ft 134 kts 179°
2026-04-27 20:01 39.96359 -84.21364 1906 ft 137 kts 180°
2026-04-27 20:02 39.95428 -84.21330 1711 ft 131 kts 179°
2026-04-27 20:02 39.94523 -84.21299 1539 ft 128 kts 179°
2026-04-27 20:02 39.93645 -84.21272 1380 ft 124 kts 180°
2026-04-27 20:02 39.92777 -84.21240 1224 ft 124 kts 180°
2026-04-27 20:03 39.91904 -84.21212 1074 ft 128 kts 179°
2026-04-27 20:03 39.91027 -84.21182 990 ft 114 kts 178°
2026-04-27 20:03 39.90461 -84.21159 996 ft 40 kts 179°
2026-04-27 20:03 39.90279 -84.21153 997 ft 26 kts 180°
2026-04-27 20:04 39.90098 -84.21148 999 ft 27 kts 178°
2026-04-27 20:04 39.89890 -84.21143 999 ft 32 kts 179°
2026-04-27 20:04 39.89664 -84.21137 999 ft 20 kts 180°
2026-04-27 20:04 39.89584 -84.21135 999 ft 15 kts 179°
2026-04-27 20:05 39.89546 -84.21064 999 ft 0 kts 56°